Chicopee, MA

10:34 PM EST on November 18, 2017 (GMT -0500)
Westover Air Reserve Base / Metropolitan Airport

Weather History for KCEF - August, 2013

Change the Weather History Date:

Thursday, August 15, 2013

  Actual Average Record
Temperature  
Mean Temperature 60 °F -  
Max Temperature 76 °F 79 °F 89 °F (2002)
Min Temperature 44 °F 59 °F 44 °F (2013)
Degree Days  
Heating Degree Days 6    
Growing Degree Days 10 (Base 50)    
Moisture  
Dew Point 48 °F    
Average Humidity 92    
Maximum Humidity 100    
Minimum Humidity 40    
Precipitation  
Precipitation 0.00 in - - ()
Sea Level Pressure  
Sea Level Pressure 30.07 in    
Wind  
Wind Speed 1 mph (NNE)    
Max Wind Speed 14 mph    
Max Gust Speed 17 mph    
Visibility 4 miles    
Events      
Averages and records for this station are not official NWS values.
T = Trace of Precipitation, MM = Missing Value Source: NWS Daily Summary

Daily Weather History Graph

Daily Weather History Graph

Search for Another Location

Airport or City:

Trip Planner

Search our weather history database for the weather conditions in past years. The results will help you decide how hot, cold, wet, or windy it might be!

Date:

Astronomy

Aug. 15, 2013 Rise Set
Actual Time 5:57 AM EDT 7:50 PM EDT
Civil Twilight 5:27 AM EDT 8:20 PM EDT
Nautical Twilight 4:50 AM EDT 8:57 PM EDT
Astronomical Twilight 4:10 AM EDT 9:36 PM EDT
Moon 3:06 PM EDT (8/15) 12:03 AM EDT (8/15)
Length of Visible Light 14h 52m
Length of Day
13h 52m
Waxing Gibbous, 64% of the Moon is Illuminated
Aug 15
Waxing Gibbous
Aug 20
Full
Aug 28
Last Quarter
Sep 5
New
Sep 12
First Quarter

Hourly Weather History & Observations

Time (EDT) Temp. Dew Point Humidity Pressure Visibility Wind Dir Wind Speed Gust Speed Precip Events Conditions
12:58 AM 54.9 °F 53.1 °F 94% 30.03 in 10.0 mi Variable 3.5 mph - N/A   Clear
1:58 AM 49.3 °F 48.7 °F 98% 30.04 in 10.0 mi Calm Calm - N/A   Clear
2:15 AM 48.2 °F 48.2 °F 100% 30.02 in 2.5 mi East 2.3 mph - N/A   Clear
2:23 AM 50.0 °F 48.2 °F 94% 30.02 in 3.0 mi East 2.3 mph - N/A   Clear
2:58 AM 48.7 °F 48.2 °F 98% 30.05 in 10.0 mi Calm Calm - N/A   Clear
3:23 AM 48.2 °F 48.2 °F 100% 30.03 in 2.5 mi ESE 1.2 mph - N/A   Clear
3:25 AM 48.2 °F 48.2 °F 100% 30.04 in 2.0 mi Calm Calm - N/A   Clear
3:26 AM 48.2 °F 48.2 °F 100% 30.04 in 1.8 mi Calm Calm - N/A   Clear
3:27 AM 48.2 °F 46.4 °F 93% 30.04 in 1.5 mi Calm Calm - N/A   Clear
3:28 AM 48.2 °F 46.4 °F 93% 30.04 in 1.5 mi Calm Calm - N/A   Clear
3:29 AM 48.2 °F 46.4 °F 93% 30.04 in 1.2 mi Calm Calm - N/A   Clear
3:31 AM 48.2 °F 46.4 °F 93% 30.04 in 1.2 mi Calm Calm - N/A   Clear
3:35 AM 48.2 °F 46.4 °F 93% 30.04 in 1.5 mi Calm Calm - N/A   Clear
3:36 AM 48.2 °F 46.4 °F 93% 30.04 in 1.8 mi Calm Calm - N/A   Clear
3:37 AM 48.2 °F 46.4 °F 93% 30.04 in 2.0 mi Calm Calm - N/A   Clear
3:40 AM 48.2 °F 46.4 °F 93% 30.04 in 2.5 mi Calm Calm - N/A   Clear
3:41 AM 48.2 °F 46.4 °F 93% 30.04 in 2.0 mi Calm Calm - N/A   Clear
3:42 AM 48.2 °F 46.4 °F 93% 30.04 in 2.5 mi Calm Calm - N/A   Clear
3:49 AM 48.2 °F 48.2 °F 100% 30.04 in 3.0 mi Variable 1.2 mph - N/A   Clear
3:58 AM 48.9 °F 48.4 °F 98% 30.06 in 8.0 mi Calm Calm - N/A   Clear
4:13 AM 48.2 °F 46.4 °F 93% 30.04 in 2.0 mi NE 1.2 mph - N/A   Clear
4:14 AM 48.2 °F 46.4 °F 93% 30.04 in 1.5 mi NNE 1.2 mph - N/A   Clear
4:15 AM 46.4 °F 46.4 °F 100% 30.04 in 1.2 mi Calm Calm - N/A   Clear
4:22 AM 48.2 °F 48.2 °F 100% 30.04 in 1.5 mi Calm Calm - N/A   Clear
4:23 AM 48.2 °F 46.4 °F 93% 30.04 in 2.0 mi Calm Calm - N/A   Clear
4:24 AM 48.2 °F 46.4 °F 93% 30.04 in 3.0 mi Calm Calm - N/A   Clear
4:31 AM 46.4 °F 46.4 °F 100% 30.05 in 2.5 mi Calm Calm - N/A   Clear
4:32 AM 46.4 °F 46.4 °F 100% 30.05 in 2.0 mi Calm Calm - N/A   Clear
4:34 AM 46.4 °F 46.4 °F 100% 30.05 in 2.5 mi Calm Calm - N/A   Clear
4:38 AM 48.2 °F 48.2 °F 100% 30.05 in 3.0 mi Calm Calm - N/A   Clear
4:58 AM 46.8 °F 46.2 °F 98% 30.07 in 3.0 mi Calm Calm - N/A   Clear
4:59 AM 46.4 °F 46.4 °F 100% 30.05 in 2.0 mi NNE 1.2 mph - N/A   Clear
5:00 AM 46.4 °F 46.4 °F 100% 30.05 in 1.8 mi Calm Calm - N/A   Clear
5:01 AM 46.4 °F 46.4 °F 100% 30.05 in 1.5 mi Calm Calm - N/A   Clear
5:02 AM 46.4 °F 46.4 °F 100% 30.05 in 1.2 mi Calm Calm - N/A   Clear
5:03 AM 46.4 °F 46.4 °F 100% 30.05 in 1.2 mi Calm Calm - N/A   Clear
5:04 AM 46.4 °F 46.4 °F 100% 30.05 in 1.0 mi Calm Calm - N/A   Clear
5:06 AM 46.4 °F 46.4 °F 100% 30.05 in 1.0 mi Calm Calm - N/A   Clear
5:07 AM 46.4 °F 46.4 °F 100% 30.05 in 1.0 mi Calm Calm - N/A   Clear
5:08 AM 46.4 °F 46.4 °F 100% 30.05 in 0.8 mi Calm Calm - N/A   Clear
5:09 AM 46.4 °F 46.4 °F 100% 30.05 in 1.0 mi Calm Calm - N/A   Clear
5:10 AM 46.4 °F 46.4 °F 100% 30.05 in 1.0 mi Calm Calm - N/A   Clear
5:11 AM 46.4 °F 46.4 °F 100% 30.05 in 1.0 mi Calm Calm - N/A   Clear
5:16 AM 46.4 °F 46.4 °F 100% 30.05 in 1.2 mi Calm Calm - N/A   Clear
5:18 AM 46.4 °F 46.4 °F 100% 30.05 in 1.5 mi Calm Calm - N/A   Clear
5:19 AM 46.4 °F 46.4 °F 100% 30.05 in 1.5 mi Calm Calm - N/A   Clear
5:21 AM 46.4 °F 46.4 °F 100% 30.06 in 1.5 mi Calm Calm - N/A   Clear
5:22 AM 46.4 °F 46.4 °F 100% 30.06 in 1.5 mi Calm Calm - N/A   Clear
5:23 AM 46.4 °F 46.4 °F 100% 30.06 in 1.8 mi Calm Calm - N/A   Clear
5:24 AM 46.4 °F 46.4 °F 100% 30.06 in 2.0 mi Calm Calm - N/A   Clear
5:26 AM 46.4 °F 44.6 °F 93% 30.06 in 2.5 mi Calm Calm - N/A   Clear
5:28 AM 46.4 °F 46.4 °F 100% 30.06 in 3.0 mi Calm Calm - N/A   Clear
5:37 AM 46.4 °F 46.4 °F 100% 30.06 in 2.5 mi ENE 2.3 mph - N/A   Clear
5:38 AM 46.4 °F 46.4 °F 100% 30.06 in 2.0 mi ENE 2.3 mph - N/A   Clear
5:39 AM 46.4 °F 44.6 °F 93% 30.06 in 1.5 mi ENE 2.3 mph - N/A   Clear
5:40 AM 46.4 °F 44.6 °F 93% 30.06 in 1.2 mi NE 2.3 mph - N/A   Clear
5:41 AM 46.4 °F 44.6 °F 93% 30.06 in 1.0 mi NE 2.3 mph - N/A   Clear
5:44 AM 46.4 °F 44.6 °F 93% 30.06 in 0.8 mi Calm Calm - N/A   Clear
5:45 AM 46.4 °F 44.6 °F 93% 30.06 in 0.8 mi Calm Calm - N/A   Clear
5:48 AM 46.4 °F 44.6 °F 93% 30.06 in 0.8 mi Calm Calm - N/A   Clear
5:49 AM 46.4 °F 46.4 °F 100% 30.06 in 0.8 mi Calm Calm - N/A   Clear
5:50 AM 46.4 °F 46.4 °F 100% 30.06 in 1.0 mi Calm Calm - N/A   Clear
5:52 AM 46.4 °F 46.4 °F 100% 30.07 in 1.2 mi Calm Calm - N/A   Clear
5:54 AM 46.4 °F 46.4 °F 100% 30.07 in 1.8 mi Calm Calm - N/A   Clear
5:55 AM 46.4 °F 46.4 °F 100% 30.07 in 2.5 mi Calm Calm - N/A   Clear
5:56 AM 46.4 °F 44.6 °F 93% 30.07 in 5.0 mi Calm Calm - N/A   Clear
5:58 AM 45.9 °F 45.3 °F 98% 30.09 in 8.0 mi NE 1.2 mph - N/A   Clear
6:19 AM 44.6 °F 44.6 °F 100% 30.08 in 2.5 mi Calm Calm - N/A   Clear
6:20 AM 44.6 °F 44.6 °F 100% 30.08 in 2.0 mi Calm Calm - N/A   Clear
6:21 AM 44.6 °F 44.6 °F 100% 30.08 in 1.8 mi Calm Calm - N/A   Clear
6:27 AM 46.4 °F 44.6 °F 93% 30.08 in 2.0 mi Calm Calm - N/A   Clear
6:28 AM 46.4 °F 44.6 °F 93% 30.08 in 3.0 mi Calm Calm - N/A   Clear
6:58 AM 48.7 °F 48.6 °F 99% 30.11 in 10.0 mi Calm Calm - N/A   Clear
7:58 AM 57.7 °F 57.4 °F 99% 30.11 in 10.0 mi South 2.3 mph - N/A   Clear
8:58 AM 62.4 °F 55.0 °F 77% 30.12 in 10.0 mi South 3.5 mph - N/A   Clear
9:58 AM 66.7 °F 55.0 °F 66% 30.12 in 10.0 mi West 4.6 mph - N/A   Clear
10:58 AM 69.8 °F 54.9 °F 59% 30.12 in 10.0 mi Variable 5.8 mph - N/A   Clear
11:58 AM 71.4 °F 52.9 °F 52% 30.11 in 10.0 mi WSW 8.1 mph - N/A   Scattered Clouds
12:58 PM 72.9 °F 51.1 °F 46% 30.09 in 10.0 mi WNW 10.4 mph - N/A   Clear
1:58 PM 75.4 °F 49.6 °F 40% 30.09 in 10.0 mi WNW 10.4 mph - N/A   Partly Cloudy
2:58 PM 73.8 °F 49.1 °F 42% 30.08 in 10.0 mi NW 6.9 mph - N/A   Partly Cloudy
3:58 PM 74.7 °F 50.2 °F 42% 30.06 in 10.0 mi West 13.8 mph 17.3 mph N/A   Mostly Cloudy
4:58 PM 75.0 °F 51.1 °F 43% 30.06 in 10.0 mi NW 8.1 mph - N/A   Scattered Clouds
5:58 PM 73.9 °F 50.0 °F 43% 30.07 in 10.0 mi NW 8.1 mph - N/A   Scattered Clouds
6:58 PM 72.3 °F 51.6 °F 48% 30.08 in 10.0 mi NW 8.1 mph - N/A   Mostly Cloudy
7:58 PM 67.8 °F 51.8 °F 56% 30.10 in 10.0 mi NW 3.5 mph - N/A   Clear
8:58 PM 57.6 °F 54.7 °F 90% 30.12 in 10.0 mi Calm Calm - N/A   Clear
9:58 PM 55.2 °F 54.7 °F 98% 30.14 in 10.0 mi SSE 2.3 mph - N/A   Clear
10:58 PM 52.3 °F 51.8 °F 98% 30.14 in 10.0 mi Calm Calm - N/A   Clear
11:42 PM 51.8 °F 51.8 °F 100% 30.13 in 2.0 mi NNE 3.5 mph - N/A   Clear
11:43 PM 51.8 °F 51.8 °F 100% 30.13 in 1.8 mi NE 3.5 mph - N/A   Clear
11:44 PM 51.8 °F 51.8 °F 100% 30.13 in 1.5 mi NE 3.5 mph - N/A   Clear
11:45 PM 51.8 °F 51.8 °F 100% 30.13 in 1.2 mi NE 3.5 mph - N/A   Clear
11:46 PM 51.8 °F 51.8 °F 100% 30.13 in 1.0 mi NE 3.5 mph - N/A   Clear
11:52 PM 50.0 °F 50.0 °F 100% 30.13 in 1.2 mi NE 2.3 mph - N/A   Clear
11:53 PM 51.8 °F 50.0 °F 94% 30.13 in 1.5 mi NE 2.3 mph - N/A   Clear
11:54 PM 51.8 °F 51.8 °F 100% 30.13 in 2.0 mi NE 2.3 mph - N/A   Clear
11:55 PM 51.8 °F 51.8 °F 100% 30.13 in 3.0 mi NE 2.3 mph - N/A   Clear
11:58 PM 51.6 °F 51.4 °F 99% 30.15 in 9.0 mi NE 2.3 mph - N/A   Clear